sat.trackr.live / text

‹ back to catalog

MAGNARO-II

NORAD 68798 · 2026-088G

PAYLOAD ACTIVE UNKNOWN

§ Identity

Operator
Country
JPN
Launch date
2026-04-23
Launch site
RLLB
Launch vehicle
Mass (kg)
RCS (m²)

External: N2YO · Heavens-Above · Gunter

§ Orbital elements

Epoch: 2026-09-17T21:53:37.127328Z

Period
95.41 min
Inclination
97.5200°
Eccentricity
0.0020043
Mean motion
15.09344135 rev/d
Perigee alt
524.3 km
Apogee alt
552.1 km
Semi-major
6,916.3 km
B*
1.6847e-4
RAAN
48.3924°
Arg perigee
121.2776°
Mean anomaly
239.0419°
Rev number
2,228

§ Raw data

MAGNARO-II1 68798U 26088G   26260.91223527  .00002637  00000+0  16847-3 0  99952 68798  97.5200  48.3924 0020043 121.2776 239.0419 15.09344135 22285

JSON: /api/v1/satellites/68798 · /tle

For live sub-satellite position, see the globe view (requires WebGL).

§ Visibility from observer

Set your observer location to see the next 7 days of passes ≥ 10°. The values pass through the URL so the page stays shareable.

No JS? Fill the form by hand. The geolocation button needs JavaScript.